Orbital Elements at Epoch 2459200.5 (2020-Dec-17.0) TDB
Reference: JPL 16 (heliocentric ecliptic J2000)
Element | Value | Uncertainty (1-sigma) | Units |
e | .106146202836885 | 9.5504e-08 | |
a | 2.542539073358397 | 1.2854e-08 | au |
q | 2.272658205156991 | 2.4628e-07 | au |
i | 3.308077269502738 | 7.6328e-06 | deg |
node | 156.6735018374933 | 6.9974e-05 | deg |
peri | 177.3762308139091 | 7.3707e-05 | deg |
M | 99.5986951692549 | 2.0795e-05 | deg |
tp | 2458790.814089260977 (2019-Nov-03.31408926) | 8.4955e-05 | TDB |
period | 1480.811848141319 4.05 | 1.1229e-05 3.074e-08 | d yr |
n | .2431098862774928 | 1.8436e-09 | deg/d |
Q | 2.812419941559803 | 1.4218e-08 | au |
|
| | Orbit Determination Parameters
Additional Information
|